Weather History for Monroe, LA

Change the Weather History Date:

Tuesday, February 11, 2014

  Actual Average Record
Temperature  
Mean Temperature 32 °F 50 °F  
Max Temperature 34 °F 61 °F 81 °F (1999)
Min Temperature 29 °F 39 °F 16 °F (1981)
Degree Days  
Heating Degree Days 33 16  
Month to date heating degree days 288 182  
Since 1 July heating degree days 2077 1663  
Cooling Degree Days 0 0  
Month to date cooling degree days 0 0  
Year to date cooling degree days 0 4  
Moisture  
Dew Point 26 °F    
Average Humidity 78    
Maximum Humidity 92    
Minimum Humidity 63    
Precipitation  
Precipitation 0.44 in 0.16 in 1.17 in (1953)
Month to date precipitation 2.99 1.73  
Year to date precipitation 3.84 6.74  
Sea Level Pressure  
Sea Level Pressure 30.24 in    
Wind  
Wind Speed 12 mph (NNE)    
Max Wind Speed 21 mph    
Max Gust Speed 25 mph    
Visibility 8 miles    
Events Rain    
T = Trace of Precipitation, MM = Missing Value Source: NWS Daily Summary

Daily Weather History Graph

Daily Weather History Graph

Search for Another Location

Airport:

Trip Planner

Search our weather history database for the weather conditions in past years. The results will help you decide how hot, cold, wet, or windy it might be!

Date:

Astronomy

Feb. 11, 2014 Rise Set
Actual Time 6:54 AM CST 5:50 PM CST
Civil Twilight 6:29 AM CST 6:15 PM CST
Nautical Twilight 6:00 AM CST 6:44 PM CST
Astronomical Twilight 5:31 AM CST 7:13 PM CST
Moon 3:15 PM CST (2/11) 4:27 AM CST (2/11)
Length of Visible Light 11h 46m
Length of Day
10h 55m
Waxing Gibbous, 91% of the Moon is Illuminated
Feb 11
Waxing Gibbous
Feb 14
Full
Feb 22
Last Quarter
Mar 1
New
Mar 8
First Quarter

Hourly Weather History & Observations

Time (CST) Temp. Windchill Dew Point Humidity Pressure Visibility Wind Dir Wind Speed Gust Speed Precip Events Conditions
12:07 AM 30.2 °F 20.2 °F 28.4 °F 93% 30.22 in 7.0 mi NNE 12.7 mph - 0.00 in   Overcast
12:53 AM 32.0 °F 24.2 °F 27.0 °F 82% 30.27 in 10.0 mi North 9.2 mph - 0.00 in   Overcast
1:53 AM 30.9 °F 21.7 °F 26.1 °F 82% 30.24 in 10.0 mi NNE 11.5 mph - N/A   Overcast
2:05 AM 30.2 °F 20.2 °F 26.6 °F 86% 30.22 in 10.0 mi NNE 12.7 mph - N/A   Overcast
2:53 AM 30.9 °F 23.5 °F 26.1 °F 82% 30.24 in 10.0 mi NNE 8.1 mph - N/A   Overcast
3:26 AM 30.2 °F 19.8 °F 24.8 °F 80% 30.25 in 10.0 mi NNE 13.8 mph 19.6 mph N/A   Overcast
3:53 AM 30.0 °F 20.5 °F 25.0 °F 82% 30.25 in 10.0 mi NNE 11.5 mph 23.0 mph N/A   Overcast
4:53 AM 30.0 °F 21.1 °F 25.0 °F 82% 30.26 in 10.0 mi North 10.4 mph - 0.00 in   Overcast
5:43 AM 28.4 °F 16.6 °F 24.8 °F 86% 30.25 in 10.0 mi NNE 16.1 mph - N/A   Overcast
5:53 AM 30.0 °F 20.5 °F 25.0 °F 82% 30.25 in 10.0 mi NNE 11.5 mph - N/A   Overcast
6:25 AM 28.4 °F 18.5 °F 24.8 °F 86% 30.28 in 10.0 mi North 11.5 mph - N/A   Overcast
6:53 AM 28.9 °F 18.6 °F 24.1 °F 82% 30.28 in 10.0 mi NNE 12.7 mph - N/A   Overcast
7:53 AM 28.9 °F 19.8 °F 24.1 °F 82% 30.30 in 10.0 mi North 10.4 mph - N/A   Overcast
8:53 AM 30.0 °F 19.5 °F 24.1 °F 79% 30.30 in 10.0 mi North 13.8 mph 19.6 mph N/A   Overcast
9:53 AM 30.0 °F 20.5 °F 24.1 °F 79% 30.33 in 10.0 mi NNE 11.5 mph - N/A   Overcast
10:53 AM 30.0 °F 20.0 °F 23.0 °F 75% 30.32 in 10.0 mi North 12.7 mph - N/A   Overcast
11:53 AM 32.0 °F 23.6 °F 24.1 °F 73% 30.30 in 10.0 mi North 10.4 mph 20.7 mph N/A   Overcast
12:04 PM 33.8 °F 24.8 °F 24.8 °F 70% 30.31 in 10.0 mi North 12.7 mph - N/A   Overcast
12:53 PM 32.0 °F 22.1 °F 23.0 °F 69% 30.29 in 10.0 mi North 13.8 mph - N/A   Overcast
1:53 PM 32.0 °F 23.6 °F 21.9 °F 66% 30.24 in 10.0 mi North 10.4 mph 20.7 mph N/A   Overcast
2:36 PM 33.8 °F 24.8 °F 24.8 °F 70% 30.21 in 10.0 mi NE 12.7 mph 19.6 mph 0.00 in   Overcast
2:53 PM 32.0 °F 22.1 °F 23.0 °F 69% 30.20 in 10.0 mi ENE 13.8 mph - 0.00 in   Overcast
3:53 PM 30.0 °F 18.7 °F 21.9 °F 72% 30.19 in 10.0 mi NE 16.1 mph - N/A   Overcast
4:14 PM 30.2 °F 21.9 °F 21.2 °F 69% 30.22 in 10.0 mi NE 9.2 mph - N/A   Overcast
4:53 PM 28.9 °F 22.8 °F 21.0 °F 72% 30.28 in 10.0 mi North 5.8 mph - N/A   Overcast
5:12 PM 30.2 °F 23.4 °F 23.0 °F 75% 30.26 in 5.0 mi North 6.9 mph - 0.01 in Rain Light Freezing Rain
5:48 PM 28.4 °F 20.4 °F 24.8 °F 86% 30.28 in 3.0 mi NNE 8.1 mph - 0.04 in Rain Light Freezing Rain
5:53 PM 28.9 °F 20.4 °F 25.0 °F 85% 30.27 in 3.0 mi NE 9.2 mph - 0.06 in Rain Light Freezing Rain
6:08 PM 28.4 °F 18.5 °F 26.6 °F 93% 30.23 in 3.0 mi ENE 11.5 mph - 0.06 in Rain Light Freezing Rain
6:23 PM 28.4 °F 18.5 °F 24.8 °F 86% 30.23 in 5.0 mi ENE 11.5 mph - 0.07 in Rain Light Freezing Rain
6:42 PM 28.4 °F 18.5 °F 26.6 °F 93% 30.22 in 4.0 mi NE 11.5 mph - 0.09 in Rain Light Freezing Rain
6:53 PM 28.9 °F 17.7 °F 26.1 °F 89% 30.18 in 3.0 mi NE 15.0 mph - 0.13 in Rain Light Freezing Rain
7:05 PM 28.4 °F 17.0 °F 26.6 °F 93% 30.19 in 4.0 mi NNE 15.0 mph 21.9 mph 0.01 in Rain Light Freezing Rain
7:14 PM 30.2 °F 19.8 °F 26.6 °F 86% 30.18 in 5.0 mi NE 13.8 mph 23.0 mph 0.03 in Rain Light Freezing Rain
7:32 PM 30.2 °F 18.1 °F 28.4 °F 93% 30.21 in 5.0 mi NNE 18.4 mph - 0.05 in Rain Light Freezing Rain
7:35 PM 30.2 °F 20.2 °F 28.4 °F 93% 30.23 in 5.0 mi NNE 12.7 mph 19.6 mph 0.06 in Rain Light Freezing Rain
7:43 PM 30.2 °F 20.8 °F 28.4 °F 93% 30.22 in 4.0 mi NNE 11.5 mph - 0.07 in Rain Light Freezing Rain
7:53 PM 30.9 °F 19.8 °F 28.0 °F 89% 30.20 in 3.0 mi NNE 16.1 mph 23.0 mph 0.09 in Rain Light Freezing Rain
8:14 PM 30.2 °F 19.3 °F 28.4 °F 93% 30.20 in 5.0 mi NNE 15.0 mph 24.2 mph 0.04 in Rain Light Freezing Rain
8:21 PM 30.2 °F 20.8 °F 28.4 °F 93% 30.21 in 6.0 mi NNE 11.5 mph - 0.04 in Rain Light Freezing Rain
8:31 PM 30.2 °F 20.2 °F 28.4 °F 93% 30.20 in 7.0 mi NE 12.7 mph 19.6 mph 0.04 in Rain Light Freezing Rain
8:53 PM 30.0 °F 19.5 °F 27.0 °F 88% 30.17 in 7.0 mi NNE 13.8 mph 23.0 mph 0.04 in Rain Light Freezing Rain
8:59 PM 30.2 °F 19.8 °F 26.6 °F 86% 30.18 in 8.0 mi NNE 13.8 mph 23.0 mph 0.00 in   Overcast
9:09 PM 30.2 °F 21.9 °F 26.6 °F 86% 30.20 in 10.0 mi NNE 9.2 mph - 0.00 in Rain Light Freezing Rain
9:53 PM 30.0 °F 25.2 °F 26.1 °F 85% 30.27 in 9.0 mi NNE 4.6 mph - 0.01 in Rain Light Freezing Rain
10:05 PM 30.2 °F 23.4 °F 26.6 °F 86% 30.25 in 3.0 mi North 6.9 mph - 0.02 in Rain Light Freezing Rain
10:24 PM 30.2 °F 21.9 °F 28.4 °F 93% 30.24 in 3.0 mi NNE 9.2 mph - 0.06 in Rain Light Freezing Rain
10:34 PM 30.2 °F 21.9 °F 28.4 °F 93% 30.23 in 4.0 mi NNE 9.2 mph - 0.07 in Rain Light Freezing Rain
10:53 PM 30.0 °F 22.4 °F 27.0 °F 88% 30.22 in 8.0 mi North 8.1 mph 17.3 mph 0.07 in Rain Light Freezing Rain
11:53 PM 30.0 °F 21.1 °F 27.0 °F 88% 30.21 in 5.0 mi North 10.4 mph - 0.04 in Rain Light Freezing Rain